Wind_Speed
31 30 29 28 27 26 27 28 28 27 25 24 25 26 26 25 24 25 28 30 30 30 31 32 32 33 32 32 32 32 33 33 32 30 31 33 34 34 34 34 35 34 34 32 31 30 30 29 29 30 31 33 34 35 34 33 31 29 28 26 25 24 24 23 22 19 17 16 18 22 26 28 28 28 30 31 33 34 35 37 38 40 41 42 44
28 27 27 27 27 27 27 28 27 26 24 24 25 26 26 25 24 26 28 30 31 32 33 33 32 32 32 31 32 33 34 33 30 30 32 34 35 34 34 34 34 34 33 32 32 31 30 29 30 31 33 34 35 36 34 31 29 28 26 25 23 22 22 22 19 17 16 17 20 24 25 25 26 28 31 33 34 35 37 39 40 42 43 44 46
27 25 25 26 26 26 27 27 27 26 24 24 24 26 26 25 24 26 28 29 31 32 32 32 31 31 31 31 32 33 33 32 29 29 32 34 35 34 34 34 34 34 32 32 32 31 31 30 31 32 34 35 36 36 33 30 28 27 26 23 21 20 20 19 17 17 18 20 22 23 24 25 28 30 32 34 35 37 38 40 42 43 44 45 47
32 26 24 24 23 23 24 25 25 25 25 25 26 27 27 27 26 27 28 28 29 30 30 30 30 30 31 31 32 32 32 31 28 29 32 34 35 34 34 33 33 33 32 32 31 31 31 31 32 33 35 36 37 35 32 29 28 27 25 22 19 18 17 16 15 16 19 21 22 23 25 28 30 32 33 35 36 37 39 42 43 45 46 47 48
36 31 27 26 26 26 27 27 27 27 28 29 30 30 30 29 28 28 27 27 27 27 28 28 28 30 31 32 32 31 31 30 29 30 33 34 34 35 34 32 32 32 32 32 31 31 31 32 33 34 36 37 37 35 31 29 27 27 25 21 18 16 16 15 15 17 19 20 22 25 28 30 32 33 34 35 36 38 40 43 45 47 48 49 50
37 35 32 32 32 33 33 32 32 31 30 32 33 33 31 30 29 29 28 27 27 26 27 27 28 30 32 33 32 31 29 29 30 31 33 34 34 35 33 31 31 31 31 31 32 32 32 32 34 35 36 37 37 34 31 29 28 27 24 20 17 16 15 15 16 18 19 20 23 27 29 32 33 34 35 36 37 39 41 43 46 48 50 51 52
39 39 37 37 36 36 36 36 36 34 33 34 35 34 32 30 29 29 28 28 28 27 27 27 28 30 32 32 32 31 29 29 31 32 33 34 34 34 32 30 31 30 30 31 31 32 32 33 34 35 36 37 37 34 30 29 28 27 24 21 17 16 15 14 15 17 19 21 24 27 30 33 34 35 36 37 39 41 42 44 47 49 50 52 53
44 43 42 41 39 39 39 38 37 35 35 36 35 34 32 30 29 29 29 29 30 29 28 28 28 29 30 31 32 32 30 31 32 32 33 34 33 32 29 29 31 30 30 30 31 31 32 33 34 35 36 37 36 33 30 29 29 27 24 21 18 16 15 14 15 17 19 21 25 28 31 33 34 35 36 38 41 43 44 45 47 49 50 51 52
49 47 46 44 42 41 40 38 37 37 36 35 34 34 32 31 31 30 30 31 31 30 28 28 27 27 28 29 32 33 32 32 31 31 33 33 32 29 27 28 29 30 30 30 31 31 32 33 34 35 36 37 36 33 30 30 30 27 24 21 19 17 15 15 16 18 20 23 26 29 32 34 34 35 36 39 42 44 45 47 47 48 49 50 52
52 51 49 46 43 41 39 38 38 37 36 34 34 33 32 32 32 31 31 31 32 31 29 27 26 25 26 28 30 32 33 33 31 31 32 32 31 28 26 27 28 29 30 30 31 31 32 33 34 35 36 37 36 33 30 30 30 27 23 21 19 16 15 16 17 19 21 24 27 30 33 34 34 34 36 39 42 45 46 47 48 48 49 50 52
54 53 51 47 44 41 40 39 38 36 35 33 32 32 32 33 32 32 31 31 32 31 29 27 25 24 25 27 29 30 32 32 32 31 31 32 30 27 26 26 27 28 29 30 30 31 32 33 34 35 36 37 36 33 30 30 29 25 22 20 17 15 15 17 19 21 23 26 29 32 34 35 34 33 36 40 43 45 46 47 48 49 50 51 52
54 53 52 48 45 42 40 40 38 36 35 34 33 32 32 32 32 33 33 32 31 30 29 27 25 24 25 26 28 30 31 31 31 31 31 31 29 26 25 25 26 28 29 29 30 31 32 33 34 35 36 37 36 33 30 30 28 24 21 18 14 13 14 17 20 22 25 27 30 33 34 34 33 33 36 41 43 45 46 47 48 49 50 51 53
53 53 52 49 46 43 42 41 39 38 37 36 35 34 32 32 33 34 34 33 32 30 28 26 25 24 25 26 28 30 31 31 31 30 30 30 28 25 25 25 26 28 29 29 30 31 32 33 34 35 36 37 36 33 31 30 27 22 20 17 13 11 14 17 20 23 26 29 32 33 34 33 32 33 37 41 43 45 46 47 49 50 51 52 53
52 52 52 51 48 45 43 42 41 40 39 38 38 36 34 34 34 34 34 33 31 29 27 27 25 24 24 26 28 30 31 31 30 29 29 28 26 25 24 24 26 28 29 29 30 31 32 33 34 35 36 37 37 34 31 30 27 22 19 16 12 12 14 17 20 23 26 29 32 33 32 32 32 34 37 41 42 44 46 48 50 51 52 53 54
54 53 51 50 49 47 44 43 42 41 40 40 39 38 37 36 34 33 33 32 30 28 27 27 25 24 25 26 29 30 30 29 28 27 27 25 24 24 24 24 26 28 29 29 30 31 32 33 34 35 35 37 37 35 31 30 28 23 19 16 13 12 14 17 19 22 25 28 32 33 32 31 32 34 38 41 42 44 47 50 52 53 54 54 55
56 54 51 50 50 50 47 44 43 42 41 41 40 40 39 36 34 33 32 31 29 27 27 26 25 24 25 27 29 29 28 27 27 25 23 22 23 24 24 25 26 28 29 30 30 31 32 33 34 34 35 36 37 36 32 30 29 24 19 16 14 13 14 16 18 21 24 28 32 33 31 31 32 36 39 41 42 44 49 52 53 54 55 55 56
58 55 52 51 51 52 51 47 45 44 43 42 42 41 39 35 34 33 32 30 28 26 26 26 25 26 27 28 29 27 26 25 24 22 20 21 22 23 24 25 27 29 30 30 30 31 32 33 34 34 34 35 37 36 33 30 29 25 20 17 14 13 14 15 17 21 24 29 32 33 32 32 34 37 40 42 43 45 49 52 53 55 56 56 57
62 59 56 54 53 53 53 51 47 46 45 44 43 42 39 35 34 33 31 30 28 26 26 26 27 28 29 30 29 25 24 23 22 21 20 21 22 23 24 25 27 29 30 31 31 32 32 33 34 34 34 35 36 37 34 30 29 26 20 17 14 13 13 15 18 22 25 29 33 34 34 34 35 38 41 43 44 45 49 51 52 54 55 56 57
63 63 61 59 57 56 55 54 50 48 48 46 45 44 41 37 34 32 31 30 29 28 28 28 29 30 31 31 28 23 21 22 22 20 20 21 22 23 24 25 27 29 31 31 32 32 32 33 33 34 34 34 36 37 35 31 28 26 21 17 15 13 13 16 20 24 26 30 33 34 35 35 36 38 41 45 46 46 48 49 50 52 54 56 57
57 60 60 59 58 57 56 54 52 50 49 47 46 45 42 37 33 32 32 31 31 31 30 31 32 34 34 32 27 22 21 23 23 21 21 21 22 22 23 25 26 29 31 32 33 33 33 33 33 34 34 34 35 36 35 31 28 27 23 18 16 14 15 18 21 24 27 30 33 35 35 35 36 38 42 46 46 46 46 47 49 52 54 55 56
49 52 54 54 54 54 54 53 52 49 48 47 46 43 41 37 33 33 33 33 33 33 34 35 36 37 35 30 25 22 21 23 24 23 22 22 23 23 22 23 25 27 30 32 33 33 33 33 33 34 34 34 35 36 36 32 29 27 25 21 18 17 17 19 22 24 27 30 33 34 34 35 36 39 42 45 45 44 44 46 49 52 55 56 57
44 46 47 49 50 51 51 51 49 47 47 46 45 42 40 37 35 35 35 36 37 37 37 38 38 37 32 27 25 22 21 23 24 24 24 24 24 25 23 22 22 24 29 31 32 33 33 33 33 33 34 34 34 35 35 34 30 27 26 24 21 20 19 20 22 24 26 30 32 33 34 35 37 40 42 43 43 43 43 45 49 53 56 57 58
44 45 46 47 48 49 49 48 47 46 45 45 44 42 40 38 36 37 38 40 41 40 39 37 36 34 29 26 26 24 23 24 24 24 25 25 25 26 25 23 21 23 27 31 32 33 33 33 33 33 34 34 34 34 35 34 31 27 27 27 24 23 22 22 23 24 26 29 31 32 33 35 38 40 41 42 41 41 42 44 48 53 56 58 59
47 49 49 49 48 47 47 46 45 45 44 44 43 42 40 38 37 37 39 41 41 40 38 36 35 32 28 27 27 27 26 26 26 26 26 26 26 27 26 23 22 24 28 30 32 33 34 34 33 33 33 33 33 34 34 34 31 28 27 28 26 24 23 22 22 23 26 29 30 31 33 35 38 39 40 40 39 39 40 43 48 53 56 59 60
48 51 52 51 49 48 47 46 46 45 45 44 44 42 41 40 40 39 39 40 41 40 37 35 35 33 28 28 29 29 29 29 29 29 28 28 27 28 27 24 24 25 28 31 32 33 35 35 34 33 33 33 33 33 34 33 31 27 27 28 27 24 22 21 20 22 25 29 30 31 32 35 37 39 39 39 38 39 40 42 47 52 56 59 61
47 49 51 52 51 50 49 48 48 47 46 46 45 44 44 44 44 42 40 41 41 39 38 36 35 32 29 29 30 31 31 32 32 32 31 30 29 30 30 28 28 27 28 31 32 33 36 36 35 34 34 33 33 33 33 33 30 27 26 27 26 23 20 19 19 22 26 28 30 31 33 35 37 38 38 38 38 39 40 42 46 51 56 59 62
48 47 48 50 52 52 51 50 49 48 48 48 48 47 47 47 46 44 42 42 41 40 39 37 34 31 29 30 31 32 34 35 34 32 32 33 32 32 32 32 32 30 29 30 32 33 36 38 37 36 35 34 33 33 32 32 30 26 25 26 25 22 19 18 19 22 26 28 30 31 33 34 36 38 38 38 39 40 41 43 46 50 55 59 63
48 48 49 50 51 54 54 53 52 51 51 52 52 51 50 50 48 45 44 43 42 42 40 38 35 31 29 30 32 34 35 36 36 33 33 34 35 35 35 35 35 33 31 30 32 34 36 38 39 38 37 35 34 33 32 31 29 26 24 25 24 21 18 18 20 23 26 28 30 31 33 34 35 37 38 38 39 41 42 44 45 49 55 60 63
48 49 52 50 50 52 53 53 52 51 51 51 50 49 48 47 46 45 46 45 44 44 42 40 37 34 32 33 34 36 38 38 38 36 35 35 37 37 36 37 37 35 33 31 31 34 36 38 40 40 38 37 35 33 32 31 29 25 22 22 22 20 18 19 21 23 26 28 30 31 32 33 35 37 38 38 39 41 43 45 46 48 53 59 63
51 52 53 52 51 51 51 51 49 47 46 46 45 44 44 44 44 46 47 47 46 46 45 42 40 38 38 39 40 41 42 41 40 39 38 37 38 39 38 38 38 37 36 33 31 33 36 38 40 41 41 39 37 35 33 31 29 26 22 21 21 21 20 21 22 24 26 28 29 30 32 33 35 37 39 40 40 42 44 46 47 48 52 58 63
55 55 55 55 53 52 52 51 48 45 44 45 44 44 44 44 44 46 49 50 49 49 47 45 44 43 43 43 44 43 44 43 42 41 40 38 39 40 40 39 39 38 37 35 32 31 35 38 40 42 43 41 39 36 34 31 29 26 23 21 21 22 23 23 24 25 26 27 29 30 32 34 36 38 41 42 42 43 44 46 48 49 51 57 62
57 57 57 56 54 53 53 53 50 48 47 48 48 47 47 46 46 47 51 53 53 52 51 49 49 49 49 48 46 45 44 44 43 42 41 40 39 40 41 40 39 38 38 36 33 31 34 37 39 42 44 43 41 37 35 32 29 27 24 21 21 22 23 24 25 25 25 27 28 30 33 35 37 39 42 44 44 43 45 47 48 49 51 56 61
60 61 59 57 54 52 53 53 53 52 51 50 50 49 48 48 48 49 52 56 57 56 55 54 54 54 53 51 48 46 45 44 44 43 42 41 40 40 41 41 40 39 38 37 34 32 33 36 38 41 44 44 42 39 36 33 30 28 25 22 21 22 23 24 25 25 25 26 28 31 33 35 37 39 42 45 44 44 46 48 48 49 51 55 60
63 64 62 61 59 55 52 52 53 53 52 51 50 49 49 50 50 50 52 56 58 58 57 56 56 55 54 52 51 48 45 44 44 42 41 40 39 39 41 42 40 39 38 37 34 32 33 35 37 41 43 44 43 40 37 34 30 28 26 24 22 22 23 23 25 25 25 26 28 31 34 36 38 40 43 45 45 44 46 48 49 50 51 54 59
69 68 64 63 64 61 55 53 56 57 56 54 52 50 50 50 50 51 53 56 58 58 57 57 56 56 55 54 53 49 45 43 43 41 39 38 37 38 40 42 41 39 39 37 34 33 34 36 38 40 43 44 43 41 37 34 31 29 27 25 23 22 23 23 24 25 25 27 28 31 33 36 38 40 42 44 44 45 47 49 49 50 51 53 58
77 74 69 65 62 60 56 55 59 62 61 59 56 54 53 52 51 51 53 56 57 57 57 58 57 56 55 55 54 50 44 41 39 38 37 35 35 37 39 41 41 39 39 37 34 33 35 36 38 40 43 44 44 41 38 35 31 29 28 25 23 22 22 23 24 25 26 27 28 30 32 35 37 40 41 42 44 45 47 48 49 51 52 53 56
84 82 78 70 64 62 60 58 59 62 63 62 61 59 57 55 53 52 53 55 56 56 57 57 56 55 54 54 53 49 43 38 36 35 35 33 33 35 38 40 40 40 39 36 33 34 36 37 39 41 43 44 44 41 38 35 32 30 28 26 23 21 21 23 24 25 27 28 29 30 31 34 37 40 40 41 43 46 48 49 50 51 52 52 54
88 87 84 76 67 65 65 62 60 62 63 63 62 61 60 58 56 54 55 55 54 54 56 56 54 53 51 51 50 47 42 37 35 34 33 32 31 34 37 39 40 40 39 36 34 35 37 37 40 41 43 45 44 41 38 35 32 30 28 26 23 21 21 22 23 25 27 29 30 31 32 35 38 40 40 40 43 46 48 49 50 51 52 53 54
90 89 87 79 70 68 69 68 66 65 66 66 65 63 62 61 59 57 56 56 54 54 56 55 52 50 48 47 47 44 40 38 36 35 33 31 31 33 35 37 39 39 38 36 35 36 37 39 41 42 44 45 44 40 37 34 32 30 28 26 23 21 21 21 22 24 27 29 30 32 33 35 39 41 41 40 42 46 48 49 50 51 53 54 54
91 89 87 83 76 72 70 69 69 69 70 71 70 67 66 65 63 60 58 57 55 55 56 55 52 51 50 48 46 43 41 40 38 36 35 33 32 32 34 36 39 39 37 36 35 35 37 39 42 43 45 46 44 40 36 33 31 29 27 26 24 22 22 21 21 22 25 28 31 32 34 36 39 41 41 40 42 45 47 48 49 51 53 54 54
92 90 87 83 80 77 73 69 70 71 73 74 73 72 70 69 65 62 60 59 56 56 57 55 53 54 53 50 45 43 42 41 39 38 37 36 34 33 33 35 39 40 39 38 37 36 37 40 43 44 46 47 45 39 36 33 30 28 27 26 24 23 23 23 22 23 25 28 30 32 34 36 38 39 40 40 42 45 46 47 49 51 53 55 55
94 91 89 86 83 80 76 71 71 72 74 75 74 74 73 71 66 62 61 60 59 58 59 57 56 55 53 50 47 44 43 42 39 39 39 39 38 35 33 35 39 42 42 42 42 40 39 41 44 45 47 48 45 39 35 32 30 29 28 27 25 24 24 23 23 25 26 27 29 33 35 35 36 37 39 39 41 44 46 47 49 52 54 55 56
96 94 94 92 88 84 78 73 70 71 73 74 73 73 73 70 67 63 60 58 57 58 61 60 58 56 54 51 49 48 46 44 42 41 41 42 42 39 36 35 39 43 44 45 46 45 43 45 46 47 47 48 45 39 34 32 30 30 29 28 27 26 25 24 24 26 28 28 29 32 34 35 35 36 37 38 40 44 47 48 50 52 54 56 58
98 97 97 96 93 90 86 79 75 72 72 73 72 73 73 71 67 64 61 58 56 56 60 62 60 58 55 53 52 51 49 48 46 45 44 45 45 44 41 39 40 43 46 47 48 48 47 47 48 48 48 48 45 39 35 32 31 30 30 30 29 27 26 26 26 27 29 30 30 32 34 35 36 37 36 38 41 43 47 50 51 53 55 57 59
98 98 99 98 95 94 92 89 85 82 79 76 75 75 75 73 69 66 63 60 58 58 60 63 62 59 56 55 54 52 51 51 51 50 48 47 48 47 45 43 44 45 46 47 48 49 48 48 49 49 48 47 44 38 35 34 32 31 31 31 31 29 28 28 28 29 31 31 31 33 34 35 38 38 37 38 42 44 47 51 53 54 56 58 60
99 98 99 99 97 94 93 92 91 88 84 80 77 77 77 75 72 69 67 65 63 62 63 64 63 60 57 56 55 53 51 50 51 53 52 49 49 49 48 47 47 47 47 47 48 49 48 48 49 49 47 46 42 37 35 34 33 31 30 31 32 32 30 29 29 31 32 33 33 33 34 36 39 40 38 39 43 46 48 53 55 56 57 59 60
101 102 101 99 97 95 94 93 91 88 84 80 78 78 78 77 75 72 69 68 66 65 65 65 64 61 58 55 55 54 51 49 50 54 53 49 48 49 50 50 50 49 49 49 49 49 49 49 49 46 44 43 41 37 34 35 35 32 30 31 33 32 29 28 30 32 33 35 35 33 35 38 41 41 41 41 45 48 50 53 57 58 58 59 60
99 103 105 102 100 99 97 95 92 89 86 82 80 80 79 78 77 74 72 70 69 67 67 67 66 64 58 54 53 54 52 50 50 53 53 49 47 49 51 52 51 51 51 51 50 51 50 49 46 42 41 43 41 37 35 36 37 34 32 34 34 30 28 30 32 34 35 37 38 35 36 40 41 41 42 44 46 50 50 52 58 60 59 59 61
96 98 102 104 104 103 101 99 94 91 89 86 84 83 82 81 78 76 75 74 73 71 70 69 68 65 60 56 55 54 53 51 50 48 48 47 46 47 50 52 51 51 52 52 52 52 50 45 41 39 40 42 40 37 37 39 38 34 34 36 34 31 31 33 34 36 36 37 40 39 36 38 40 41 44 45 46 50 52 54 58 61 61 60 61
97 98 100 103 105 103 101 100 97 94 93 91 88 86 85 83 80 78 78 78 76 75 74 72 70 66 62 60 59 57 55 54 50 45 42 41 42 43 47 49 49 49 52 53 52 51 48 42 39 39 40 42 41 39 39 40 39 35 33 33 33 31 33 34 35 36 34 34 39 41 36 36 39 41 44 45 45 49 55 57 59 60 62 62 62
89 97 100 101 101 101 99 97 97 96 95 93 91 89 87 85 82 80 81 80 79 78 77 75 71 67 64 63 62 59 56 55 52 48 44 42 41 42 44 47 47 47 50 50 47 47 46 41 39 39 41 42 42 41 42 42 40 38 33 31 31 30 32 34 34 34 34 34 39 42 38 36 40 42 44 46 46 49 55 59 61 61 62 63 62
Wind_Direction
253 256 258 260 265 268 266 265 266 266 265 265 266 268 270 271 271 270 269 271 275 279 286 293 300 304 307 311 315 318 322 324 326 327 328 330 330 331 332 333 333 334 334 332 331 330 329 329 330 330 329 330 330 329 329 329 329 329 327 323 324 327 330 331 333 334 334 334 331 330 331 333 335 336 337 337 336 336 335 336 336 336 337 338 339
253 257 256 257 261 266 266 265 266 266 267 268 271 273 273 272 270 268 269 272 276 281 287 293 299 302 305 309 314 318 321 323 324 325 327 328 329 330 331 331 332 333 333 332 331 331 331 332 332 331 331 331 330 330 330 331 331 330 326 324 327 332 334 336 338 339 339 337 335 334 335 337 337 337 336 336 335 334 334 334 334 335 336 336 337
252 254 253 254 258 263 265 266 267 266 267 271 275 278 277 276 272 270 272 275 279 284 289 294 299 302 305 308 313 317 320 322 323 323 325 327 328 329 330 330 331 332 332 331 331 332 332 333 333 332 331 331 330 331 331 332 332 330 327 326 331 336 339 341 342 341 339 337 336 336 338 338 338 337 336 335 335 335 335 336 336 337 337 336 336
249 249 251 253 257 263 267 269 270 272 274 277 281 282 283 282 278 276 277 280 282 285 289 294 300 303 305 309 313 316 319 320 321 322 324 326 327 328 330 330 330 332 332 331 331 332 333 334 333 331 331 331 331 332 333 333 333 331 328 328 333 338 342 344 343 341 337 334 334 335 336 337 336 336 335 335 336 337 337 337 338 338 338 338 337
245 245 248 251 257 264 270 272 274 278 282 287 287 285 286 285 282 281 281 282 283 285 289 295 300 303 307 311 313 316 318 319 319 321 323 325 326 327 329 329 329 332 332 331 331 332 334 334 333 332 331 332 332 333 334 334 334 331 329 330 333 338 341 341 339 337 333 331 330 331 332 334 335 334 334 335 336 337 337 336 337 338 338 338 337
241 243 248 251 257 263 267 271 273 277 283 289 290 286 286 286 283 283 282 282 284 286 290 295 300 303 308 310 312 315 317 317 318 321 322 323 324 325 327 328 329 331 331 331 331 332 333 334 332 332 332 333 334 334 335 334 334 332 330 331 332 334 335 333 331 330 328 326 327 330 332 334 334 333 333 335 336 337 336 336 336 336 337 338 337
244 247 250 253 260 263 265 268 270 273 280 287 288 284 284 286 285 284 284 284 286 287 290 294 298 303 307 308 309 314 316 316 317 320 321 321 322 324 326 328 330 331 331 331 331 332 333 333 332 332 333 334 335 335 335 335 334 333 331 332 331 330 329 327 324 322 321 323 328 332 333 334 333 332 332 334 336 337 337 336 335 335 336 337 337
251 252 253 257 263 265 266 267 267 271 278 283 283 281 282 285 286 287 288 288 289 289 290 292 296 301 303 305 307 311 314 315 317 318 318 318 321 324 325 328 330 330 331 331 331 331 332 332 332 332 334 336 337 336 336 335 334 333 332 333 332 329 327 326 324 322 322 325 330 333 334 333 332 331 332 334 336 337 337 337 335 335 336 336 336
254 254 256 260 264 265 265 264 264 269 275 278 278 277 278 281 285 288 290 291 291 291 291 290 293 298 300 301 304 307 311 313 315 316 314 316 322 324 325 328 330 331 331 331 331 331 331 332 332 333 335 338 338 337 336 336 335 332 332 333 333 330 330 331 331 329 328 330 332 333 333 333 332 332 334 335 336 337 337 337 336 336 336 336 337
254 256 258 261 263 264 263 261 263 268 272 273 274 274 276 279 284 288 291 293 292 292 290 288 290 294 294 296 299 302 307 310 313 313 312 316 321 323 325 327 329 331 331 330 330 330 331 331 332 334 337 339 339 337 336 336 335 332 332 334 334 333 335 339 338 335 333 333 333 333 333 332 332 333 335 336 336 336 336 337 337 337 337 337 337
255 257 259 260 261 261 261 259 262 267 268 268 269 272 275 279 283 287 290 292 293 291 287 286 287 289 290 293 297 302 306 308 310 311 311 315 319 322 324 327 328 329 330 329 329 329 330 331 332 334 338 340 340 338 337 336 335 332 331 335 335 335 339 342 342 340 338 336 335 334 334 333 331 331 333 334 335 335 336 338 338 338 338 338 338
255 257 258 259 259 259 259 258 260 263 263 264 265 269 274 279 283 285 287 290 292 290 286 284 284 286 289 293 298 304 306 306 307 308 309 313 317 321 324 327 328 327 328 328 328 329 330 331 333 335 339 341 341 339 337 336 335 331 331 333 334 335 339 343 343 342 340 338 337 337 336 335 332 330 330 333 335 336 338 339 340 340 339 339 339
254 255 257 257 257 258 257 257 258 260 261 262 264 267 272 277 281 282 284 288 290 287 283 282 282 285 290 295 300 305 306 305 305 305 306 310 314 319 324 327 327 325 326 327 328 329 330 332 333 336 339 341 341 339 337 336 335 330 329 330 329 331 337 342 343 342 340 340 340 339 338 337 334 331 330 333 336 338 340 341 342 342 342 341 341
252 254 256 257 257 257 257 257 257 258 260 262 263 265 268 273 278 280 282 285 285 282 279 279 280 285 292 298 304 306 305 304 304 303 305 309 313 319 323 326 325 323 324 326 327 329 331 333 333 336 339 341 342 340 337 336 334 330 327 327 323 324 332 338 340 340 341 343 342 340 339 338 335 333 333 334 337 341 343 344 345 345 345 344 343
250 252 255 256 257 257 257 256 257 257 259 261 262 264 266 270 274 278 281 281 280 277 275 276 279 286 294 302 307 307 305 304 303 303 306 309 313 318 322 324 323 321 323 326 327 329 331 333 334 336 338 341 342 341 337 335 335 331 327 325 318 316 322 329 335 339 342 343 343 341 339 337 335 335 336 337 338 342 346 347 347 348 347 346 345
248 250 251 253 255 257 257 257 256 256 257 260 262 263 265 267 271 275 278 278 276 273 272 275 280 287 296 302 306 306 304 303 303 305 308 311 314 318 321 323 322 320 322 326 327 328 331 333 333 335 338 341 342 341 338 335 334 332 328 324 316 311 315 323 332 337 339 341 342 341 338 335 335 337 339 339 340 343 347 349 349 350 350 349 348
245 246 247 250 252 254 257 258 257 256 256 258 260 261 262 265 269 273 276 274 272 271 272 275 281 288 295 300 303 304 303 304 304 307 310 312 314 316 319 321 320 320 322 326 327 328 331 332 333 334 337 340 342 342 338 334 333 332 329 323 316 311 313 320 329 334 337 339 340 340 337 335 335 338 341 342 342 344 348 350 351 352 352 351 350
243 243 244 246 249 252 256 258 257 256 255 256 257 259 260 263 267 271 274 272 270 269 271 276 281 288 292 296 299 300 303 306 307 309 312 314 315 315 317 320 320 321 324 326 327 328 330 332 332 334 337 340 342 342 338 334 332 330 328 322 316 312 313 320 328 332 334 337 338 338 337 336 337 340 343 345 346 347 349 352 354 354 354 353 352
242 242 244 245 248 251 254 257 257 257 256 255 255 256 257 260 264 270 274 273 272 271 273 278 283 286 289 292 293 294 303 309 308 310 315 317 317 317 318 321 323 323 325 326 326 327 329 331 332 333 337 341 342 342 339 334 330 328 326 320 315 311 312 320 326 330 332 335 337 338 337 338 340 342 345 347 348 349 351 354 356 356 356 355 354
240 242 243 245 247 249 252 254 256 256 255 254 255 256 257 258 264 269 273 273 272 273 275 279 282 283 286 288 285 287 301 309 309 312 316 318 320 321 319 322 326 326 326 327 326 327 329 330 331 333 337 341 342 342 339 334 329 327 323 317 311 308 310 319 325 328 331 334 337 338 339 340 341 342 344 347 348 350 352 355 356 357 357 356 355
237 239 241 243 244 247 249 251 253 253 251 251 253 256 258 259 264 268 269 269 269 271 273 276 278 280 281 281 277 283 301 307 307 312 316 318 321 323 321 324 330 328 326 327 327 327 329 330 331 332 336 340 341 341 339 334 328 326 323 315 307 305 308 316 324 328 331 334 337 338 339 340 340 340 342 345 347 350 352 355 357 358 358 357 356
234 235 238 240 241 243 245 247 249 249 248 249 251 254 256 258 263 266 265 265 265 266 269 271 273 275 275 272 269 280 300 307 307 311 314 316 319 322 322 326 332 328 325 327 328 328 330 330 331 331 334 339 341 340 339 335 329 325 324 317 307 303 305 313 322 328 331 334 336 338 339 340 340 341 342 345 347 349 352 354 357 358 358 357 357
236 236 237 238 240 241 243 245 246 246 246 247 249 250 253 258 262 262 260 260 261 263 266 267 268 269 267 264 265 274 291 304 309 310 312 313 315 320 322 324 328 327 325 327 328 329 330 331 331 331 333 337 340 340 338 335 330 325 324 320 311 304 303 309 318 326 330 333 336 338 339 340 341 342 344 346 347 349 352 354 357 359 359 358 358
244 242 239 238 238 238 240 241 242 243 243 245 247 249 253 257 260 260 260 259 259 261 262 262 264 265 261 259 262 268 279 295 308 311 310 311 311 316 320 318 318 324 327 327 328 330 331 332 331 330 333 337 339 339 337 335 330 326 324 321 316 308 305 308 316 324 331 334 336 337 339 340 342 344 346 347 347 349 351 354 357 359 360 359 359
245 245 242 239 238 237 237 237 238 240 242 244 246 249 254 258 260 263 265 261 259 260 258 259 263 261 256 256 260 266 273 287 304 309 310 311 310 312 316 312 307 317 328 329 330 331 332 333 331 330 333 337 339 338 336 334 330 327 324 322 317 312 309 311 317 326 332 335 336 337 338 339 342 345 347 347 347 348 350 353 356 360 1 1 0
243 245 243 240 239 239 239 238 239 241 243 245 247 252 256 259 262 267 266 260 258 257 256 259 261 258 254 256 260 266 273 284 298 305 307 311 311 310 313 310 306 311 323 331 333 332 332 333 331 331 334 337 338 337 335 332 329 327 325 322 318 313 312 316 322 329 333 335 335 335 336 338 342 345 346 347 347 348 349 351 355 359 1 2 2
242 245 245 241 240 241 241 241 241 243 245 248 251 255 259 262 265 266 262 256 254 255 255 257 259 258 256 259 265 270 276 285 295 302 305 309 311 311 310 310 310 308 312 326 334 333 333 333 331 332 334 336 337 337 334 331 328 325 324 323 317 313 315 321 325 329 332 333 333 334 335 337 341 344 346 347 347 348 348 349 353 358 1 2 3
241 245 246 244 243 243 243 244 245 247 249 251 254 257 261 264 266 263 256 251 252 254 254 256 259 260 260 264 269 275 280 287 295 301 305 308 310 311 310 309 310 309 306 316 330 333 332 333 331 331 333 335 336 336 334 330 326 323 323 322 316 313 317 321 325 328 330 331 331 332 334 336 340 343 345 345 347 348 348 348 351 355 359 1 3
237 242 244 243 244 244 245 247 249 250 251 253 256 258 262 264 264 259 253 249 251 252 253 255 260 264 266 270 275 279 285 290 297 302 305 307 308 309 309 307 308 309 304 306 321 330 331 332 332 331 332 334 335 335 333 329 324 320 319 319 314 311 315 318 321 325 326 327 329 331 334 337 339 342 343 343 344 346 346 347 349 352 356 359 1
235 241 243 243 244 245 246 248 249 249 251 254 257 259 262 265 263 258 253 250 251 252 253 255 260 266 270 274 279 283 287 291 296 301 303 305 306 306 306 305 304 306 303 300 311 325 330 330 332 331 331 332 334 334 332 329 324 318 316 316 311 307 309 313 316 321 323 325 327 331 334 337 339 341 341 340 340 341 343 344 346 349 352 356 359
236 240 243 244 244 244 245 246 246 247 250 253 256 258 262 266 264 258 253 252 252 252 253 256 261 266 271 276 280 284 288 291 295 299 300 302 302 303 303 302 300 301 301 298 302 318 328 329 330 331 330 331 333 332 331 329 324 317 312 312 309 305 306 309 313 318 321 323 326 330 333 336 337 339 340 340 338 339 341 342 343 346 349 353 357
237 239 240 242 243 242 244 246 247 249 251 253 256 259 261 263 263 260 255 252 252 252 254 257 261 266 271 276 280 283 287 290 294 296 298 299 299 299 299 299 298 297 298 297 297 309 324 328 329 329 329 330 331 331 330 328 324 317 311 308 307 305 304 307 311 316 320 322 324 328 332 334 336 337 339 339 338 339 341 341 341 344 347 351 355
235 237 236 236 238 241 244 247 249 250 250 251 254 256 257 259 261 261 258 254 253 254 255 258 262 266 270 274 278 281 285 288 291 294 296 297 297 297 297 297 295 293 293 294 294 302 317 326 328 328 328 328 329 329 328 327 323 316 310 305 304 304 305 307 311 317 320 321 323 327 331 333 335 336 338 339 338 339 341 341 341 343 346 350 354
231 234 234 233 234 238 242 247 250 249 247 248 250 252 253 256 259 261 259 256 256 256 257 260 262 265 269 273 275 279 283 287 290 293 294 295 295 296 296 294 292 289 289 290 292 298 311 323 327 328 327 327 327 327 326 324 321 315 309 304 300 302 305 307 311 317 320 321 323 327 331 334 335 336 337 339 338 339 341 341 340 342 345 349 353
230 232 234 233 233 236 239 243 247 247 247 248 249 250 251 254 259 261 258 256 256 257 259 261 263 266 269 272 275 278 281 285 289 292 293 293 295 295 294 292 289 286 286 288 291 299 310 320 325 326 326 326 326 325 324 322 318 313 308 303 299 300 304 308 311 316 320 321 324 329 332 335 336 337 339 340 339 340 341 340 340 342 344 348 352
230 231 232 233 233 235 236 239 243 247 249 250 251 251 251 253 257 259 258 256 256 258 260 262 264 266 269 272 274 277 279 283 287 290 291 293 295 294 291 289 286 283 283 285 292 302 311 318 323 324 325 325 325 324 322 319 315 311 308 304 300 302 305 308 312 315 318 321 324 330 333 336 339 340 341 342 342 341 342 341 340 341 343 346 350
230 231 232 235 235 235 235 237 241 246 250 252 253 252 251 253 255 257 258 257 257 258 260 261 263 266 269 272 274 274 276 279 283 286 288 291 293 291 289 287 283 280 280 284 293 305 312 317 321 322 322 323 323 323 320 317 313 309 308 305 303 305 307 310 313 315 317 318 323 328 331 335 339 340 341 343 344 344 344 342 341 340 341 344 348
230 231 232 235 238 240 239 238 239 242 246 251 253 253 253 254 255 255 257 257 257 259 259 260 263 266 270 273 272 271 272 276 279 281 283 287 289 286 285 283 279 277 278 283 295 306 311 315 318 319 320 320 321 321 318 315 311 309 308 306 305 307 309 311 314 316 316 317 320 325 328 330 334 336 338 340 343 344 344 343 341 340 340 342 345
230 230 232 234 238 241 242 241 239 239 241 245 249 253 255 257 256 255 255 255 257 258 259 260 262 264 269 273 270 267 270 274 276 276 278 282 284 282 282 279 275 273 275 283 295 305 310 312 315 316 317 317 318 318 317 313 310 307 306 305 306 308 309 312 314 315 314 316 319 323 325 327 330 332 334 337 341 343 343 343 342 340 340 340 343
231 231 232 234 237 240 242 242 241 240 241 244 248 251 253 255 257 256 254 254 255 257 258 260 260 262 270 273 267 264 269 274 275 274 275 279 280 280 280 277 272 269 272 280 292 304 309 310 312 314 314 314 315 316 314 311 307 305 304 303 304 306 308 311 315 316 314 316 320 323 325 327 328 329 331 334 338 341 342 341 341 341 340 339 341
232 232 233 235 237 238 239 240 240 241 243 246 249 251 252 254 254 255 255 253 253 255 257 258 259 263 270 271 263 262 270 276 277 274 274 277 277 278 279 275 270 268 270 277 286 298 306 308 309 310 311 312 313 313 312 308 304 302 301 300 302 304 305 309 315 320 319 319 321 323 325 327 329 329 330 333 336 339 341 341 340 340 340 339 339
233 233 233 233 234 235 235 236 238 241 242 245 248 251 253 254 253 253 254 252 252 254 256 258 260 264 269 269 263 261 268 278 281 276 274 276 276 276 275 273 270 268 269 274 280 290 300 304 304 306 307 309 310 309 309 305 301 299 298 299 300 301 303 307 313 319 323 323 322 324 325 327 329 331 332 336 338 338 340 340 339 339 340 338 338
233 234 234 234 234 234 233 234 236 240 241 243 246 248 251 253 252 252 252 250 250 252 256 260 262 264 269 268 261 258 264 276 284 280 276 276 275 274 272 269 268 268 270 273 277 284 293 298 300 301 303 307 307 305 305 302 297 297 297 297 298 299 301 306 311 314 318 323 324 323 324 326 329 332 334 337 338 337 337 339 339 339 339 339 337
234 235 236 235 235 235 234 233 233 236 238 240 243 245 247 249 250 251 250 248 249 252 256 260 262 264 268 265 258 256 262 272 282 283 278 275 274 273 272 268 267 267 269 273 276 281 287 293 295 296 300 304 303 301 301 299 295 294 294 295 297 297 299 305 309 310 313 319 323 323 323 324 327 331 333 334 336 336 335 336 338 338 339 339 337
236 235 236 236 236 236 236 235 235 235 237 239 241 244 245 246 247 248 248 248 250 252 255 259 261 262 266 263 257 257 262 270 279 282 277 273 272 272 272 270 269 269 271 274 277 280 285 289 291 293 298 301 300 297 298 298 294 292 293 295 296 296 299 304 307 308 311 317 321 322 321 322 324 328 331 331 332 334 334 334 337 338 338 338 338
236 236 236 236 235 236 236 237 238 238 239 240 242 244 245 246 246 247 247 247 249 251 253 256 258 260 263 262 259 261 266 271 277 279 275 271 269 270 272 271 271 272 274 276 279 281 283 286 288 291 297 300 296 293 295 295 293 292 294 296 296 298 301 305 306 308 311 314 319 321 320 320 322 324 328 329 328 331 333 332 334 336 336 337 338
236 235 236 236 235 236 236 237 237 238 238 240 242 243 245 246 246 246 246 246 248 250 251 254 256 258 260 260 260 263 270 275 277 277 274 271 268 269 271 271 271 273 274 275 278 279 282 285 287 291 298 298 293 290 291 291 290 291 293 295 297 302 306 306 306 308 310 312 315 319 319 320 321 322 325 327 326 328 330 329 330 334 335 335 336
236 236 237 237 236 237 237 237 237 237 237 239 241 242 244 245 246 247 247 246 247 249 251 252 253 255 258 259 261 265 270 274 276 276 274 272 269 268 270 271 272 274 274 273 275 277 282 286 289 292 297 297 291 287 286 286 287 289 293 295 298 303 304 304 304 306 308 310 311 316 320 320 319 321 324 326 326 326 327 327 328 332 333 333 334
233 235 236 237 236 237 238 237 237 236 237 239 240 241 242 244 246 247 247 247 246 247 249 251 252 254 257 259 262 265 268 270 271 273 274 272 269 268 269 271 273 275 275 274 274 277 281 285 287 290 293 292 288 284 281 280 283 289 294 297 299 301 300 301 302 304 307 310 311 316 322 321 319 321 322 324 324 323 324 326 328 329 330 331 332
233 233 234 236 236 237 238 238 238 237 238 239 240 241 242 244 245 246 246 247 247 247 248 250 251 254 256 258 260 262 264 265 266 270 274 274 273 271 271 271 272 273 274 275 276 278 280 282 282 285 288 289 286 281 276 275 278 284 292 297 297 297 297 300 302 304 309 313 314 318 322 321 318 318 319 319 320 320 320 323 326 327 327 329 331
235 235 235 236 236 236 237 238 238 238 238 239 240 240 241 243 245 245 246 247 247 247 247 249 251 253 255 256 258 259 259 261 262 266 272 277 280 281 278 275 274 273 273 276 277 277 278 281 282 283 286 287 285 280 275 273 273 277 285 294 296 294 296 300 302 305 310 313 313 314 317 317 314 313 315 316 317 318 317 319 323 325 325 327 329
Height
10826 10827 10828 10830 10831 10832 10832 10833 10833 10834 10834 10834 10834 10834 10834 10834 10834 10834 10833 10832 10831 10831 10830 10829 10828 10827 10827 10825 10824 10822 10821 10819 10817 10815 10814 10812 10810 10808 10806 10803 10800 10797 10794 10791 10789 10786 10784 10781 10779 10777 10774 10771 10768 10765 10761 10758 10755 10753 10750 10748 10745 10743 10741 10739 10737 10736 10736 10735 10734 10733 10731 10729 10726 10724 10721 10719 10716 10713 10710 10706 10702 10699 10695 10691 10687
10823 10824 10826 10827 10828 10829 10830 10830 10831 10831 10832 10832 10832 10832 10832 10832 10831 10831 10830 10830 10829 10828 10828 10827 10826 10825 10824 10823 10822 10820 10818 10817 10815 10813 10812 10810 10808 10806 10804 10801 10798 10796 10793 10789 10787 10784 10782 10779 10777 10774 10772 10769 10765 10762 10759 10756 10753 10751 10748 10746 10743 10741 10739 10737 10736 10735 10734 10733 10732 10731 10729 10727 10725 10723 10720 10717 10714 10711 10708 10704 10700 10696 10692 10688 10684
10820 10821 10823 10824 10825 10826 10827 10827 10828 10829 10830 10830 10830 10830 10830 10829 10829 10829 10828 10827 10827 10826 10825 10824 10823 10822 10821 10821 10819 10818 10816 10815 10813 10812 10810 10808 10806 10804 10802 10799 10796 10793 10791 10788 10785 10782 10780 10777 10775 10772 10770 10767 10763 10760 10756 10753 10751 10749 10746 10744 10742 10740 10738 10736 10734 10733 10732 10731 10730 10729 10727 10726 10724 10721 10718 10715 10712 10709 10705 10701 10697 10693 10689 10685 10681
10816 10818 10820 10821 10822 10823 10824 10825 10826 10826 10827 10828 10828 10828 10827 10827 10826 10826 10826 10825 10825 10824 10823 10821 10820 10819 10818 10818 10817 10815 10814 10812 10811 10810 10808 10806 10803 10802 10799 10797 10794 10791 10789 10786 10783 10780 10778 10775 10773 10770 10767 10764 10761 10757 10754 10751 10749 10747 10744 10742 10740 10738 10737 10735 10734 10733 10731 10730 10728 10727 10726 10724 10722 10719 10717 10713 10710 10706 10703 10699 10695 10691 10687 10682 10677
10813 10815 10816 10818 10819 10820 10821 10821 10822 10823 10824 10824 10825 10825 10825 10825 10824 10824 10823 10823 10822 10821 10820 10819 10818 10816 10815 10814 10814 10813 10811 10810 10809 10808 10806 10804 10801 10799 10797 10795 10792 10789 10786 10784 10781 10778 10776 10773 10771 10768 10765 10762 10758 10755 10752 10749 10747 10745 10743 10740 10738 10737 10735 10734 10733 10732 10731 10729 10727 10726 10724 10722 10719 10717 10714 10711 10708 10704 10701 10697 10692 10688 10684 10679 10675
10809 10811 10812 10814 10815 10816 10817 10818 10819 10820 10820 10821 10821 10822 10822 10822 10822 10821 10821 10821 10820 10819 10818 10817 10815 10814 10812 10811 10810 10810 10809 10807 10806 10805 10804 10802 10799 10797 10795 10792 10790 10787 10784 10781 10779 10776 10774 10771 10769 10766 10763 10760 10756 10753 10750 10747 10745 10743 10741 10738 10736 10735 10734 10733 10732 10730 10729 10728 10726 10724 10722 10720 10717 10715 10712 10709 10706 10703 10699 10695 10690 10686 10681 10677 10672
10805 10807 10809 10810 10812 10813 10814 10815 10815 10816 10817 10817 10818 10818 10819 10819 10819 10819 10818 10818 10818 10817 10816 10814 10813 10812 10810 10808 10807 10807 10806 10805 10804 10802 10801 10799 10797 10795 10792 10790 10787 10785 10782 10780 10777 10774 10772 10769 10767 10764 10761 10758 10754 10751 10748 10745 10743 10741 10738 10736 10735 10733 10732 10731 10730 10729 10727 10726 10725 10723 10721 10718 10715 10713 10710 10707 10704 10700 10697 10692 10688 10683 10679 10674 10669
10801 10803 10804 10806 10808 10810 10811 10811 10812 10813 10813 10814 10814 10815 10815 10816 10816 10816 10816 10815 10815 10814 10813 10812 10811 10809 10808 10806 10805 10804 10803 10802 10801 10800 10798 10797 10795 10793 10790 10788 10785 10782 10780 10777 10775 10772 10770 10767 10765 10762 10759 10756 10752 10749 10746 10744 10741 10739 10737 10734 10733 10732 10731 10729 10728 10727 10726 10724 10723 10721 10719 10716 10713 10710 10707 10704 10701 10697 10694 10690 10685 10681 10676 10671 10667
10797 10799 10801 10803 10805 10806 10807 10808 10808 10809 10810 10810 10811 10811 10812 10812 10812 10812 10812 10812 10812 10811 10811 10810 10808 10807 10805 10805 10803 10802 10800 10799 10799 10797 10796 10794 10792 10791 10788 10786 10783 10780 10777 10775 10773 10770 10768 10765 10763 10760 10757 10754 10750 10747 10744 10742 10739 10737 10735 10733 10731 10730 10729 10728 10727 10725 10724 10722 10721 10719 10717 10714 10711 10708 10705 10702 10698 10695 10691 10687 10683 10678 10674 10669 10664
10793 10795 10797 10799 10801 10802 10804 10804 10805 10805 10806 10807 10807 10808 10808 10808 10808 10809 10809 10809 10808 10808 10808 10807 10806 10804 10803 10803 10801 10800 10798 10796 10796 10795 10793 10791 10789 10788 10786 10784 10781 10778 10775 10773 10770 10768 10765 10763 10761 10758 10755 10752 10748 10745 10743 10740 10738 10735 10733 10731 10730 10728 10727 10726 10725 10724 10722 10721 10719 10717 10715 10712 10710 10707 10704 10700 10696 10692 10689 10685 10680 10676 10671 10666 10661
10790 10791 10793 10795 10797 10798 10800 10801 10801 10802 10802 10803 10803 10804 10804 10804 10805 10805 10805 10805 10805 10805 10804 10804 10803 10802 10801 10800 10799 10798 10796 10794 10793 10792 10790 10787 10786 10785 10783 10781 10778 10776 10773 10771 10769 10766 10763 10761 10759 10756 10753 10750 10747 10744 10741 10739 10736 10734 10732 10730 10728 10727 10726 10725 10724 10722 10721 10719 10717 10715 10713 10710 10708 10705 10702 10699 10695 10691 10686 10682 10678 10673 10668 10663 10658
10785 10787 10788 10791 10793 10794 10796 10797 10797 10798 10798 10799 10799 10800 10800 10800 10801 10801 10801 10801 10801 10801 10801 10801 10800 10800 10799 10798 10797 10795 10794 10792 10790 10788 10787 10784 10783 10782 10780 10778 10776 10773 10771 10769 10767 10764 10762 10759 10757 10754 10752 10748 10745 10742 10740 10737 10735 10732 10730 10728 10727 10726 10724 10723 10722 10720 10719 10717 10715 10713 10711 10708 10706 10703 10700 10697 10693 10689 10684 10680 10675 10671 10666 10660 10655
10781 10783 10784 10786 10788 10790 10792 10793 10794 10794 10794 10795 10795 10796 10796 10797 10797 10798 10798 10797 10797 10797 10797 10797 10797 10797 10796 10795 10794 10793 10791 10789 10788 10786 10784 10782 10780 10779 10777 10776 10773 10771 10769 10767 10765 10762 10760 10757 10755 10752 10749 10747 10744 10741 10738 10736 10734 10731 10729 10727 10725 10724 10723 10722 10720 10719 10717 10715 10714 10711 10709 10706 10703 10701 10698 10694 10690 10686 10682 10677 10673 10668 10663 10658 10652
10777 10778 10780 10781 10783 10786 10787 10789 10789 10790 10791 10791 10792 10792 10793 10793 10794 10794 10794 10794 10794 10793 10794 10794 10794 10793 10793 10792 10792 10791 10789 10787 10785 10783 10781 10780 10778 10776 10775 10773 10771 10768 10767 10765 10763 10760 10758 10755 10752 10750 10747 10745 10742 10739 10737 10735 10732 10730 10727 10725 10724 10723 10721 10720 10719 10717 10716 10714 10712 10710 10707 10704 10701 10699 10695 10692 10688 10684 10680 10675 10670 10665 10660 10655 10649
10772 10773 10775 10776 10778 10780 10783 10784 10785 10786 10787 10787 10788 10789 10789 10790 10790 10790 10790 10790 10790 10790 10790 10790 10790 10790 10790 10790 10789 10788 10786 10785 10783 10781 10779 10777 10775 10774 10772 10771 10769 10766 10765 10763 10760 10758 10755 10753 10750 10748 10745 10743 10740 10737 10735 10733 10731 10728 10726 10724 10722 10721 10720 10718 10717 10716 10714 10713 10710 10708 10705 10702 10699 10697 10694 10690 10686 10682 10678 10672 10667 10662 10657 10652 10647
10767 10769 10771 10771 10773 10775 10777 10779 10780 10782 10783 10783 10784 10785 10785 10786 10786 10786 10786 10786 10786 10786 10787 10787 10787 10786 10786 10787 10787 10786 10784 10783 10781 10779 10777 10775 10773 10771 10770 10768 10766 10764 10762 10760 10758 10755 10753 10751 10748 10746 10744 10741 10738 10736 10733 10731 10729 10727 10724 10722 10721 10719 10718 10717 10715 10714 10713 10711 10708 10706 10703 10700 10698 10695 10692 10688 10684 10680 10675 10670 10665 10660 10654 10649 10644
10761 10764 10765 10766 10767 10769 10771 10774 10776 10777 10778 10779 10781 10781 10781 10782 10782 10782 10782 10782 10782 10783 10783 10783 10783 10783 10783 10784 10785 10784 10783 10780 10778 10776 10775 10773 10771 10769 10767 10766 10764 10762 10760 10758 10755 10753 10750 10748 10746 10744 10742 10739 10736 10734 10731 10729 10727 10725 10723 10721 10719 10717 10716 10715 10714 10712 10711 10709 10706 10704 10701 10698 10695 10693 10689 10686 10682 10678 10673 10668 10663 10657 10652 10646 10641
10756 10758 10760 10761 10763 10764 10766 10768 10771 10772 10774 10775 10776 10777 10777 10778 10778 10778 10778 10778 10779 10779 10780 10780 10780 10780 10781 10782 10782 10782 10780 10778 10776 10774 10773 10771 10769 10767 10765 10764 10762 10760 10758 10756 10753 10750 10748 10746 10744 10742 10739 10737 10734 10732 10730 10727 10726 10724 10722 10719 10717 10716 10714 10713 10712 10710 10709 10707 10704 10701 10698 10696 10693 10690 10686 10683 10679 10675 10671 10666 10661 10656 10650 10644 10639
10750 10752 10755 10757 10758 10760 10761 10763 10765 10767 10769 10770 10771 10772 10773 10774 10774 10774 10774 10774 10775 10776 10776 10776 10777 10777 10778 10779 10780 10780 10778 10776 10774 10772 10771 10769 10767 10765 10763 10762 10760 10758 10756 10754 10751 10748 10746 10744 10742 10739 10737 10735 10732 10730 10728 10726 10724 10722 10720 10718 10716 10714 10712 10711 10709 10708 10706 10704 10702 10699 10695 10693 10690 10687 10683 10680 10677 10673 10669 10664 10659 10654 10648 10643 10637
10744 10747 10749 10752 10754 10755 10756 10758 10760 10762 10764 10765 10766 10768 10768 10769 10770 10770 10770 10770 10771 10772 10772 10773 10773 10774 10775 10776 10777 10776 10775 10774 10772 10770 10769 10768 10766 10764 10762 10760 10758 10756 10754 10752 10749 10746 10744 10742 10739 10737 10734 10733 10730 10728 10726 10724 10722 10720 10718 10716 10714 10712 10711 10709 10708 10706 10704 10702 10699 10696 10693 10690 10687 10684 10681 10677 10674 10670 10666 10662 10657 10652 10647 10641 10635
10738 10741 10744 10746 10748 10750 10751 10753 10755 10757 10758 10760 10762 10762 10763 10764 10765 10765 10766 10767 10767 10768 10769 10769 10770 10771 10771 10772 10773 10773 10772 10771 10770 10768 10767 10766 10764 10762 10761 10759 10757 10754 10752 10750 10747 10744 10741 10739 10737 10734 10732 10730 10728 10726 10724 10722 10720 10718 10717 10715 10713 10711 10709 10707 10706 10704 10702 10699 10697 10694 10691 10688 10685 10682 10679 10676 10672 10668 10664 10660 10655 10650 10644 10639 10633
10733 10735 10738 10741 10743 10744 10745 10747 10749 10751 10753 10755 10757 10758 10759 10760 10761 10762 10762 10763 10764 10765 10765 10766 10767 10767 10768 10769 10769 10769 10769 10768 10767 10766 10764 10764 10762 10760 10759 10757 10755 10753 10751 10748 10745 10742 10739 10737 10735 10732 10730 10728 10726 10724 10721 10719 10718 10716 10714 10712 10711 10709 10707 10706 10704 10702 10700 10698 10695 10692 10689 10686 10683 10680 10677 10674 10670 10666 10662 10657 10652 10647 10642 10637 10631
10728 10730 10732 10734 10736 10738 10740 10742 10744 10746 10748 10750 10752 10754 10755 10756 10757 10758 10758 10759 10760 10761 10761 10762 10763 10764 10764 10764 10765 10765 10765 10765 10764 10763 10762 10761 10760 10758 10757 10755 10753 10752 10749 10746 10742 10739 10737 10735 10733 10730 10728 10726 10723 10721 10719 10717 10715 10714 10712 10710 10708 10706 10705 10704 10702 10700 10698 10696 10693 10691 10688 10685 10682 10678 10675 10672 10668 10664 10660 10655 10651 10646 10640 10635 10629
10723 10724 10725 10728 10731 10733 10735 10737 10739 10741 10743 10746 10748 10749 10751 10752 10753 10753 10754 10755 10756 10757 10758 10759 10759 10760 10760 10760 10761 10761 10761 10761 10761 10761 10760 10759 10758 10756 10755 10753 10752 10749 10747 10744 10741 10737 10734 10733 10731 10729 10726 10723 10721 10719 10717 10715 10713 10712 10710 10708 10706 10704 10703 10701 10700 10698 10696 10694 10691 10689 10686 10683 10680 10677 10673 10670 10666 10663 10659 10654 10650 10645 10639 10633 10627
10718 10718 10720 10723 10726 10728 10730 10732 10734 10736 10739 10741 10743 10745 10747 10748 10749 10749 10750 10751 10751 10753 10754 10755 10755 10755 10756 10756 10757 10757 10757 10758 10758 10758 10757 10756 10756 10754 10753 10752 10750 10748 10745 10743 10739 10735 10732 10730 10728 10726 10724 10721 10719 10717 10715 10713 10711 10709 10708 10706 10703 10702 10700 10699 10698 10696 10694 10691 10689 10687 10684 10681 10678 10675 10671 10668 10664 10661 10657 10653 10648 10643 10638 10632 10626
10712 10713 10716 10719 10722 10724 10726 10728 10730 10732 10734 10736 10738 10740 10742 10743 10744 10746 10746 10747 10748 10749 10750 10751 10751 10752 10752 10753 10753 10754 10754 10754 10755 10755 10754 10753 10753 10751 10751 10750 10748 10745 10743 10741 10738 10734 10730 10728 10726 10724 10722 10719 10717 10715 10713 10710 10708 10707 10705 10703 10701 10699 10698 10697 10695 10694 10692 10689 10687 10684 10682 10679 10676 10672 10669 10666 10662 10658 10654 10650 10646 10641 10636 10630 10624
10706 10709 10711 10714 10717 10719 10721 10724 10726 10728 10730 10732 10734 10736 10737 10738 10740 10742 10742 10743 10744 10745 10747 10747 10748 10748 10748 10749 10750 10750 10751 10751 10752 10752 10751 10750 10749 10748 10747 10747 10745 10743 10741 10739 10736 10733 10729 10726 10723 10721 10719 10717 10715 10713 10711 10708 10706 10704 10703 10701 10699 10698 10696 10694 10693 10691 10690 10687 10685 10682 10680 10677 10673 10670 10667 10663 10660 10656 10652 10648 10643 10638 10633 10628 10622
10702 10705 10706 10709 10712 10714 10716 10719 10721 10723 10725 10727 10729 10731 10733 10734 10736 10738 10738 10739 10740 10741 10743 10743 10744 10745 10745 10746 10747 10747 10748 10748 10749 10749 10748 10747 10746 10745 10744 10743 10742 10741 10739 10736 10734 10731 10728 10725 10721 10719 10717 10715 10713 10711 10709 10707 10704 10702 10701 10699 10697 10696 10694 10693 10691 10689 10687 10685 10683 10680 10677 10674 10671 10668 10664 10661 10657 10653 10649 10645 10641 10636 10631 10626 10620
10698 10700 10701 10704 10707 10709 10712 10714 10717 10719 10720 10722 10724 10727 10729 10731 10732 10733 10734 10735 10736 10737 10739 10740 10740 10741 10742 10743 10744 10744 10744 10745 10745 10745 10744 10744 10742 10741 10741 10740 10739 10738 10737 10735 10732 10729 10726 10723 10720 10717 10714 10712 10711 10709 10707 10705 10702 10700 10698 10697 10695 10694 10692 10691 10689 10687 10685 10683 10681 10678 10675 10672 10669 10665 10662 10659 10655 10651 10646 10642 10638 10633 10628 10623 10618
10692 10694 10696 10699 10702 10705 10707 10710 10712 10714 10716 10718 10720 10722 10724 10726 10728 10729 10730 10731 10732 10733 10734 10736 10737 10737 10739 10740 10741 10741 10741 10741 10741 10740 10740 10740 10739 10738 10737 10736 10735 10735 10734 10733 10731 10727 10723 10721 10718 10715 10712 10710 10708 10706 10704 10702 10700 10698 10696 10694 10693 10692 10690 10689 10687 10685 10683 10681 10678 10676 10673 10670 10666 10663 10660 10656 10653 10649 10644 10639 10635 10631 10626 10621 10615
10686 10689 10691 10694 10698 10700 10702 10705 10707 10710 10712 10713 10716 10718 10720 10721 10723 10725 10726 10727 10728 10729 10730 10732 10733 10733 10735 10736 10737 10737 10737 10737 10737 10737 10736 10736 10735 10734 10733 10732 10731 10731 10731 10730 10729 10726 10722 10718 10716 10713 10710 10708 10706 10704 10702 10700 10698 10696 10694 10692 10691 10689 10688 10686 10685 10683 10681 10678 10676 10673 10670 10667 10664 10661 10657 10654 10650 10646 10642 10637 10632 10628 10623 10618 10613
10681 10684 10687 10690 10693 10695 10698 10701 10703 10705 10707 10709 10711 10713 10715 10716 10718 10720 10722 10723 10723 10724 10726 10728 10729 10730 10731 10732 10733 10733 10733 10733 10733 10733 10732 10732 10731 10730 10729 10728 10727 10726 10726 10726 10726 10725 10721 10717 10714 10711 10708 10705 10703 10701 10699 10697 10695 10693 10692 10690 10688 10687 10685 10684 10682 10680 10678 10675 10673 10671 10668 10665 10662 10658 10655 10651 10647 10643 10639 10634 10629 10625 10620 10615 10610
10675 10678 10681 10684 10687 10689 10692 10696 10698 10699 10701 10703 10705 10708 10710 10711 10712 10714 10716 10718 10719 10720 10722 10723 10724 10725 10726 10728 10728 10729 10729 10729 10729 10729 10728 10728 10727 10726 10725 10724 10723 10722 10722 10722 10722 10722 10719 10716 10712 10709 10706 10703 10701 10699 10697 10695 10693 10691 10689 10688 10686 10684 10683 10681 10679 10677 10675 10673 10670 10668 10666 10663 10659 10656 10652 10649 10644 10640 10636 10631 10626 10622 10617 10613 10607
10669 10670 10673 10677 10680 10683 10687 10691 10692 10693 10695 10697 10699 10702 10703 10705 10707 10709 10711 10712 10714 10716 10717 10718 10720 10721 10722 10722 10723 10725 10725 10725 10724 10724 10724 10724 10723 10722 10721 10720 10719 10718 10717 10718 10718 10718 10716 10714 10711 10708 10705 10701 10699 10697 10695 10692 10691 10689 10687 10685 10684 10682 10680 10679 10677 10675 10672 10670 10668 10665 10663 10660 10657 10654 10650 10646 10642 10637 10633 10628 10623 10619 10614 10610 10605
10662 10664 10665 10668 10672 10677 10684 10689 10689 10688 10689 10691 10693 10696 10697 10699 10701 10703 10705 10707 10709 10710 10712 10713 10714 10716 10717 10717 10718 10720 10721 10721 10720 10720 10720 10720 10719 10719 10717 10716 10715 10714 10713 10713 10714 10713 10712 10711 10708 10706 10703 10700 10697 10695 10692 10690 10688 10686 10685 10683 10681 10680 10678 10676 10674 10672 10669 10667 10665 10662 10660 10657 10654 10651 10647 10643 10639 10635 10630 10626 10621 10616 10612 10607 10603
10654 10656 10656 10659 10666 10672 10678 10682 10683 10683 10684 10685 10688 10690 10692 10694 10696 10698 10700 10701 10703 10705 10707 10708 10709 10711 10712 10712 10713 10715 10716 10716 10716 10715 10715 10715 10715 10714 10713 10712 10712 10711 10710 10709 10709 10709 10708 10706 10705 10703 10700 10697 10695 10693 10690 10688 10686 10684 10683 10681 10679 10677 10675 10673 10671 10669 10667 10664 10662 10659 10657 10654 10651 10648 10644 10641 10636 10632 10628 10623 10618 10613 10609 10605 10601
10646 10649 10651 10654 10661 10666 10670 10674 10677 10678 10678 10680 10682 10685 10687 10689 10692 10693 10695 10696 10698 10699 10701 10702 10704 10706 10707 10707 10707 10709 10711 10712 10711 10711 10711 10711 10711 10710 10709 10708 10708 10707 10706 10706 10705 10704 10703 10702 10701 10699 10697 10695 10692 10690 10688 10685 10683 10682 10680 10678 10677 10675 10672 10670 10668 10666 10664 10661 10659 10656 10654 10651 10648 10645 10642 10638 10634 10630 10626 10621 10616 10611 10607 10603 10599
10639 10643 10646 10652 10658 10660 10663 10667 10670 10671 10673 10674 10675 10677 10681 10684 10687 10689 10690 10691 10692 10694 10695 10697 10699 10701 10702 10702 10702 10703 10705 10706 10706 10706 10706 10706 10706 10705 10704 10704 10704 10703 10702 10702 10701 10699 10698 10697 10696 10695 10693 10691 10689 10687 10685 10683 10680 10679 10677 10676 10674 10672 10669 10667 10665 10663 10661 10658 10655 10653 10651 10648 10645 10642 10639 10635 10632 10628 10624 10619 10615 10610 10605 10601 10597
10633 10637 10641 10648 10653 10654 10655 10659 10661 10663 10666 10667 10669 10671 10674 10678 10681 10683 10684 10685 10686 10688 10689 10691 10694 10695 10696 10697 10697 10698 10699 10700 10701 10701 10701 10701 10701 10700 10700 10700 10700 10699 10698 10698 10696 10695 10693 10692 10691 10690 10689 10687 10686 10684 10682 10680 10678 10676 10674 10673 10671 10669 10666 10664 10662 10660 10657 10655 10652 10650 10647 10645 10641 10638 10635 10632 10629 10625 10621 10617 10613 10608 10603 10599 10595
10627 10632 10638 10644 10647 10646 10647 10651 10654 10656 10658 10660 10663 10666 10668 10671 10674 10676 10678 10680 10681 10683 10684 10686 10688 10689 10690 10691 10692 10692 10693 10694 10695 10695 10695 10696 10696 10696 10695 10695 10695 10695 10694 10693 10692 10690 10689 10687 10686 10685 10684 10683 10682 10680 10678 10676 10674 10673 10671 10670 10668 10666 10663 10660 10659 10657 10654 10652 10649 10646 10644 10641 10638 10635 10632 10629 10626 10623 10619 10615 10611 10606 10601 10596 10592
10621 10626 10633 10638 10639 10638 10641 10644 10647 10649 10651 10653 10656 10659 10661 10665 10668 10670 10672 10674 10676 10677 10678 10680 10682 10683 10684 10686 10687 10687 10688 10689 10690 10690 10690 10690 10691 10691 10691 10690 10690 10690 10690 10689 10688 10686 10685 10683 10681 10680 10679 10678 10678 10677 10675 10672 10671 10669 10668 10666 10664 10662 10660 10657 10655 10653 10651 10649 10646 10643 10641 10638 10635 10632 10629 10626 10623 10620 10617 10613 10609 10605 10599 10594 10590
10613 10618 10624 10628 10628 10629 10633 10637 10639 10642 10644 10647 10649 10652 10654 10657 10661 10664 10666 10668 10670 10671 10672 10674 10676 10678 10679 10680 10681 10682 10683 10683 10684 10685 10685 10685 10685 10686 10686 10685 10685 10685 10684 10684 10683 10682 10681 10680 10678 10676 10675 10674 10673 10673 10671 10669 10667 10665 10663 10662 10660 10658 10656 10654 10652 10650 10648 10646 10643 10640 10637 10635 10632 10629 10626 10623 10620 10617 10614 10611 10607 10602 10598 10592 10587
10607 10610 10614 10618 10621 10623 10625 10629 10632 10634 10637 10640 10642 10645 10646 10649 10653 10657 10659 10661 10663 10665 10666 10668 10670 10672 10674 10675 10675 10676 10677 10677 10678 10679 10681 10681 10681 10681 10681 10680 10680 10680 10679 10678 10678 10677 10677 10677 10674 10672 10671 10670 10669 10668 10667 10665 10663 10661 10659 10657 10656 10654 10652 10650 10648 10646 10644 10642 10640 10637 10634 10631 10629 10626 10623 10620 10618 10614 10611 10608 10604 10600 10596 10590 10585
10600 10602 10605 10609 10613 10615 10617 10620 10624 10627 10629 10632 10635 10638 10640 10642 10645 10649 10652 10653 10655 10658 10660 10662 10664 10666 10668 10669 10670 10670 10671 10671 10672 10673 10675 10677 10677 10676 10676 10676 10675 10674 10674 10673 10673 10673 10673 10673 10671 10668 10667 10666 10665 10664 10662 10661 10659 10657 10655 10653 10651 10650 10648 10646 10644 10642 10640 10638 10637 10634 10631 10628 10625 10623 10621 10617 10614 10612 10608 10605 10602 10598 10593 10588 10582
10591 10594 10597 10600 10604 10607 10610 10612 10615 10619 10622 10625 10628 10631 10633 10635 10638 10642 10645 10646 10648 10652 10654 10655 10658 10660 10661 10662 10664 10665 10666 10666 10666 10667 10669 10671 10672 10672 10672 10671 10670 10670 10669 10669 10668 10668 10669 10669 10667 10664 10663 10663 10662 10660 10658 10657 10655 10654 10652 10650 10647 10646 10644 10642 10639 10637 10635 10634 10633 10630 10627 10625 10622 10619 10617 10614 10610 10608 10605 10601 10599 10595 10591 10586 10580
10584 10587 10589 10592 10595 10599 10602 10605 10608 10612 10615 10619 10621 10624 10626 10628 10631 10635 10638 10640 10642 10645 10647 10649 10651 10654 10655 10656 10657 10659 10660 10661 10662 10661 10662 10664 10666 10666 10667 10666 10666 10665 10665 10665 10664 10664 10664 10665 10663 10661 10659 10659 10658 10656 10654 10653 10651 10650 10648 10646 10643 10642 10640 10638 10635 10633 10631 10629 10628 10626 10623 10621 10618 10615 10614 10611 10607 10604 10602 10598 10595 10592 10588 10583 10578
10578 10580 10580 10583 10588 10592 10594 10597 10601 10605 10609 10613 10615 10617 10619 10621 10624 10627 10631 10633 10636 10638 10640 10642 10644 10646 10648 10650 10652 10653 10654 10656 10657 10655 10655 10657 10660 10661 10661 10661 10661 10660 10660 10660 10659 10659 10660 10660 10659 10658 10656 10655 10654 10652 10650 10648 10646 10645 10645 10642 10640 10638 10636 10634 10631 10629 10627 10625 10623 10623 10620 10617 10614 10612 10609 10607 10603 10601 10599 10595 10591 10589 10585 10580 10575
10573 10573 10574 10577 10582 10584 10585 10588 10592 10597 10602 10605 10607 10610 10612 10614 10616 10620 10624 10627 10629 10631 10633 10635 10636 10639 10642 10645 10647 10648 10648 10650 10650 10649 10648 10650 10653 10654 10654 10654 10655 10655 10655 10655 10654 10655 10655 10656 10656 10655 10652 10650 10649 10647 10645 10643 10642 10641 10641 10638 10636 10635 10633 10630 10628 10626 10623 10620 10618 10619 10617 10613 10610 10608 10605 10603 10600 10596 10595 10592 10587 10584 10582 10577 10572
10565 10567 10568 10569 10571 10574 10576 10580 10586 10591 10594 10596 10599 10602 10604 10605 10609 10613 10617 10619 10621 10625 10626 10628 10629 10633 10637 10639 10641 10642 10643 10644 10644 10643 10643 10644 10646 10648 10648 10648 10649 10650 10649 10649 10649 10650 10650 10651 10652 10651 10648 10645 10644 10643 10640 10638 10637 10637 10637 10634 10633 10631 10629 10627 10625 10622 10620 10617 10613 10614 10614 10610 10606 10604 10601 10599 10597 10592 10589 10589 10585 10580 10577 10575 10571
10554 10556 10557 10559 10562 10566 10570 10574 10579 10584 10586 10588 10590 10594 10596 10598 10602 10606 10608 10610 10614 10618 10619 10620 10623 10627 10630 10633 10634 10636 10637 10637 10637 10637 10638 10639 10640 10642 10642 10642 10643 10644 10643 10642 10644 10645 10645 10646 10647 10646 10643 10641 10639 10638 10634 10632 10631 10632 10632 10631 10629 10628 10625 10623 10622 10619 10617 10614 10609 10607 10609 10607 10602 10600 10597 10594 10594 10589 10584 10582 10582 10578 10574 10572 10569
10540 10542 10545 10549 10554 10557 10561 10565 10569 10573 10576 10578 10581 10586 10588 10590 10594 10597 10599 10602 10607 10610 10611 10613 10616 10620 10624 10626 10628 10629 10630 10630 10630 10631 10633 10634 10635 10636 10636 10636 10638 10639 10637 10637 10639 10640 10639 10640 10640 10640 10638 10636 10634 10632 10629 10627 10626 10626 10627 10627 10625 10624 10622 10620 10618 10616 10613 10612 10608 10603 10603 10602 10599 10596 10593 10590 10589 10588 10581 10577 10577 10576 10572 10569 10565